"startDT [UTC]","vpos","CH4 [ppm]","stdev(CH4) [ppm]","CO2 [ppm]","stdev(CO2) [ppm]","H2O [ppm]","stdev(H2O)","p_LGR [torr]","T_LGR [C]","mt1_LGR [us]","mt2_LGR [us]","T_ECpre [C]","T_EC1 [C]","T_EC2 [C]","p_inlet [hPa]","p_in [hPa]","p_out [hPa]","T_inlet [C]","RH_inlet [%]","dwpt_inlet [C]","T_vent [C]","RH_vent [%]","dwpt_vent [C]","flow_vent [l min-1]","flow_inlet [l min-1]","dwpt_sample [C]","T_room [C]"
2012-12-14 00:00:00,0.0,1.9220,0.0008,-1.00,0.00,45.3,33.8,138.20,23.67,24.60,36.43,0.04,-272.75,-272.75,-36,557,-914,19.0,5.2,-21.1,19.0,5.3,-20.8,5.73,2.41,-26.5,24.1
2012-12-14 00:01:00,0.0,1.9221,0.0011,-1.00,0.00,34.8,33.7,138.20,23.68,24.61,36.44,0.04,-272.74,-272.74,-36,557,-915,19.0,5.2,-21.1,19.0,5.3,-20.8,5.73,2.42,-26.5,24.1
2012-12-14 00:02:00,0.0,1.9227,0.0010,-1.00,0.00,50.5,31.7,138.20,23.69,24.60,36.43,0.04,-272.75,-272.74,-36,557,-915,19.0,5.2,-21.1,19.0,5.3,-20.8,5.73,2.40,-26.5,24.1
2012-12-14 00:03:00,0.0,1.9225,0.0008,-1.00,0.00,43.5,35.1,138.20,23.70,24.61,36.44,0.04,-272.75,-272.75,-36,557,-915,19.0,5.1,-21.2,19.0,5.3,-20.8,5.73,2.39,-26.5,24.1
2012-12-14 00:04:00,0.0,1.9224,0.0008,-1.00,0.00,37.4,33.9,138.20,23.70,24.60,36.44,0.04,-272.75,-272.75,-36,557,-915,19.0,5.1,-21.2,19.0,5.3,-20.9,5.73,2.38,-26.5,24.2
2012-12-14 00:05:00,0.0,1.9217,0.0007,-1.00,0.00,39.2,33.7,138.20,23.70,24.60,36.43,0.04,-272.74,-272.74,-36,557,-914,19.0,5.1,-21.2,19.0,5.3,-20.8,5.73,2.37,-26.5,24.2
2012-12-14 00:06:00,0.0,1.9220,0.0010,-1.00,0.00,35.0,28.1,138.20,23.71,24.61,36.44,0.04,-272.74,-272.75,-36,557,-915,19.0,5.2,-21.1,19.0,5.3,-20.8,5.73,2.36,-26.4,24.2
2012-12-14 00:07:00,0.0,1.9228,0.0009,-1.00,0.00,49.2,29.7,138.20,23.72,24.60,36.44,0.04,-272.75,-272.75,-36,557,-915,19.0,5.1,-21.2,19.0,5.3,-20.9,5.73,2.36,-26.4,24.2
2012-12-14 00:08:00,0.0,1.9222,0.0008,-1.00,0.00,52.6,33.5,138.20,23.73,24.60,36.43,0.04,-272.74,-272.74,-36,557,-915,19.0,5.1,-21.2,19.0,5.3,-20.9,5.73,2.37,-26.4,24.2
2012-12-14 00:09:00,0.0,1.9220,0.0008,-1.00,0.00,46.9,31.7,138.20,23.74,24.61,36.43,0.04,-272.75,-272.74,-36,557,-915,19.1,5.1,-21.2,19.0,5.3,-20.8,5.73,2.39,-26.4,24.2
2012-12-14 00:10:00,0.0,1.9219,0.0010,-1.00,0.00,35.7,30.9,138.20,23.74,24.60,36.44,0.04,-272.75,-272.75,-36,557,-915,19.0,5.1,-21.2,19.1,5.3,-20.8,5.73,2.40,-26.4,24.2
2012-12-14 00:11:00,0.0,1.9219,0.0009,-1.00,0.00,53.2,34.0,138.20,23.74,24.60,36.44,0.04,-272.75,-272.75,-36,557,-915,19.0,5.1,-21.2,19.0,5.3,-20.8,5.73,2.41,-26.4,24.2
2012-12-14 00:12:00,0.0,1.9223,0.0011,-1.00,0.00,43.3,33.6,138.20,23.75,24.61,36.44,0.04,-272.75,-272.74,-36,557,-915,19.1,5.1,-21.2,19.1,5.3,-20.9,5.73,2.41,-26.4,24.2
2012-12-14 00:13:00,0.0,1.9223,0.0008,-1.00,0.00,45.7,35.0,138.20,23.77,24.61,36.44,0.04,-272.74,-272.75,-36,557,-915,19.1,5.1,-21.2,19.1,5.3,-20.9,5.73,2.41,-26.4,24.2
2012-12-14 00:14:00,0.0,1.9224,0.0008,-1.00,0.00,50.1,32.9,138.20,23.77,24.61,36.44,0.04,-272.75,-272.74,-36,557,-915,19.1,5.1,-21.2,19.1,5.3,-20.9,5.73,2.39,-26.4,24.2
2012-12-14 00:15:00,0.0,1.9220,0.0010,-1.00,0.00,52.6,32.7,138.20,23.78,24.61,36.44,0.04,-272.74,-272.74,-36,557,-915,19.1,5.1,-21.2,19.1,5.2,-20.9,5.73,2.38,-26.4,24.3
2012-12-14 00:16:00,0.0,1.9226,0.0008,-1.00,0.00,46.7,33.5,138.20,23.79,24.61,36.44,0.04,-272.75,-272.75,-36,557,-915,19.1,5.1,-21.2,19.1,5.2,-20.9,5.73,2.37,-26.4,24.2
2012-12-14 00:17:00,0.0,1.9229,0.0007,-1.00,0.00,57.2,32.2,138.20,23.80,24.61,36.43,0.04,-272.75,-272.75,-36,557,-915,19.1,5.1,-21.2,19.1,5.2,-20.9,5.73,2.36,-26.4,24.2
2012-12-14 00:18:00,0.0,1.9228,0.0009,-1.00,0.00,52.4,32.3,138.20,23.81,24.60,36.43,0.04,-272.74,-272.75,-36,557,-915,19.1,5.1,-21.3,19.1,5.2,-21.0,5.73,2.37,-26.4,24.2
2012-12-14 00:19:00,0.0,1.9223,0.0008,-1.00,0.00,49.5,37.8,138.20,23.81,24.61,36.44,0.04,-272.75,-272.75,-36,558,-915,19.1,5.1,-21.3,19.1,5.2,-21.0,5.73,2.38,-26.4,24.3
2012-12-14 00:20:00,0.0,1.9224,0.0011,-1.00,0.00,49.1,32.0,138.20,23.81,24.60,36.44,0.04,-272.75,-272.75,-36,557,-915,19.1,5.1,-21.3,19.1,5.2,-21.0,5.73,2.39,-26.4,24.3
2012-12-14 00:21:00,0.0,1.9218,0.0011,-1.00,0.00,41.4,30.3,138.20,23.82,24.60,36.44,0.04,-272.74,-272.75,-36,557,-915,19.2,5.1,-21.3,19.1,5.2,-21.0,5.73,2.41,-26.4,24.3
2012-12-14 00:22:00,0.0,1.9220,0.0009,-1.00,0.00,41.9,33.1,138.20,23.82,24.61,36.44,0.04,-272.75,-272.75,-36,557,-915,19.2,5.0,-21.3,19.2,5.2,-21.0,5.73,2.41,-26.4,24.3
2012-12-14 00:23:00,0.0,1.9215,0.0008,-1.00,0.00,49.3,37.7,138.20,23.82,24.61,36.43,0.04,-272.75,-272.75,-36,558,-915,19.2,5.0,-21.3,19.2,5.2,-21.0,5.73,2.41,-26.3,24.3
2012-12-14 00:24:00,0.0,1.9215,0.0009,-1.00,0.00,52.5,35.3,138.20,23.82,24.61,36.44,0.04,-272.75,-272.75,-36,558,-915,19.2,5.0,-21.3,19.2,5.1,-21.0,5.73,2.40,-26.4,24.3
2012-12-14 00:25:00,0.0,1.9217,0.0010,-1.00,0.00,51.5,35.5,138.20,23.83,24.61,36.44,0.04,-272.74,-272.74,-36,558,-915,19.2,5.0,-21.4,19.2,5.1,-21.1,5.73,2.38,-26.3,24.3
2012-12-14 00:26:00,0.0,1.9216,0.0009,-1.00,0.00,39.3,30.5,138.20,23.83,24.61,36.43,0.04,-272.74,-272.75,-36,558,-915,19.2,5.0,-21.4,19.2,5.1,-21.1,5.73,2.36,-26.3,24.3
2012-12-14 00:27:00,0.0,1.9218,0.0007,-1.00,0.00,49.9,37.3,138.20,23.84,24.60,36.44,0.04,-272.75,-272.75,-36,558,-915,19.2,5.0,-21.4,19.2,5.1,-21.1,5.73,2.36,-26.3,24.3
2012-12-14 00:28:00,0.0,1.9221,0.0010,-1.00,0.00,57.4,40.3,138.20,23.85,24.61,36.44,0.04,-272.75,-272.74,-36,558,-915,19.2,5.0,-21.4,19.2,5.1,-21.1,5.73,2.36,-26.3,24.4
2012-12-14 00:29:00,0.0,1.9226,0.0009,-1.00,0.00,55.0,35.3,138.20,23.87,24.61,36.44,0.04,-272.74,-272.75,-36,558,-915,19.2,4.9,-21.4,19.2,5.1,-21.2,5.73,2.38,-26.3,24.4
2012-12-14 00:30:00,0.0,1.9233,0.0008,-1.00,0.00,64.3,40.4,138.20,23.88,24.61,36.44,0.04,-272.74,-272.74,-36,558,-915,19.3,4.9,-21.5,19.2,5.1,-21.2,5.73,2.40,-26.3,24.3
2012-12-14 00:31:00,0.0,1.9240,0.0008,-1.00,0.00,69.1,36.8,138.20,23.89,24.61,36.43,0.04,-272.75,-272.75,-36,558,-915,19.2,4.9,-21.6,19.3,5.0,-21.2,5.73,2.41,-26.3,24.4
2012-12-14 00:32:00,0.0,1.9241,0.0009,-1.00,0.00,69.2,35.0,138.20,23.91,24.61,36.44,0.04,-272.74,-272.75,-36,558,-915,19.2,4.9,-21.6,19.3,5.0,-21.3,5.73,2.41,-26.3,24.4
2012-12-14 00:33:00,0.0,1.9242,0.0011,-1.00,0.00,66.2,36.9,138.20,23.92,24.61,36.44,0.04,-272.75,-272.75,-36,558,-915,19.3,4.9,-21.6,19.3,5.0,-21.3,5.73,2.41,-26.3,24.4
2012-12-14 00:34:00,0.0,1.9242,0.0008,-1.00,0.00,52.0,36.2,138.20,23.92,24.60,36.44,0.04,-272.75,-272.75,-36,558,-915,19.3,4.9,-21.6,19.3,5.0,-21.4,5.73,2.39,-26.3,24.4
2012-12-14 00:35:00,0.0,1.9239,0.0009,-1.00,0.00,62.7,37.8,138.19,23.92,24.61,36.44,0.04,-272.74,-272.75,-36,558,-915,19.3,4.8,-21.7,19.3,5.0,-21.4,5.73,2.37,-26.3,24.4
2012-12-14 00:36:00,0.0,1.9245,0.0009,-1.00,0.00,59.2,34.6,138.19,23.93,24.61,36.44,0.04,-272.75,-272.75,-36,558,-915,19.3,4.8,-21.7,19.3,4.9,-21.4,5.73,2.36,-26.3,24.4
2012-12-14 00:37:00,0.0,1.9249,0.0008,-1.00,0.00,73.1,39.8,138.20,23.95,24.61,36.43,0.04,-272.74,-272.75,-36,558,-915,19.3,4.8,-21.7,19.3,4.9,-21.5,5.73,2.36,-26.3,24.4
2012-12-14 00:38:00,0.0,1.9252,0.0009,-1.00,0.00,66.2,42.8,138.20,23.96,24.61,36.43,0.04,-272.75,-272.75,-36,558,-915,19.3,4.8,-21.8,19.3,4.9,-21.5,5.73,2.37,-26.3,24.4
2012-12-14 00:39:00,0.0,1.9251,0.0009,-1.00,0.00,71.6,41.0,138.19,23.96,24.61,36.44,0.04,-272.74,-272.74,-36,558,-915,19.3,4.8,-21.9,19.3,4.9,-21.5,5.73,2.40,-26.3,24.4
2012-12-14 00:40:00,0.0,1.9243,0.0007,-1.00,0.00,65.8,39.1,138.19,23.96,24.61,36.44,0.04,-272.75,-272.75,-36,558,-915,19.3,4.8,-21.9,19.3,4.9,-21.6,5.73,2.41,-26.3,24.4
2012-12-14 00:41:00,0.0,1.9244,0.0009,-1.00,0.00,75.9,42.8,138.19,23.97,24.61,36.44,0.04,-272.75,-272.75,-36,558,-915,19.3,4.7,-21.9,19.3,4.9,-21.6,5.73,2.42,-26.3,24.5
2012-12-14 00:42:00,0.0,1.9245,0.0010,-1.00,0.00,69.2,37.0,138.19,23.98,24.61,36.43,0.04,-272.74,-272.74,-36,558,-915,19.3,4.7,-21.9,19.3,4.9,-21.6,5.73,2.41,-26.2,24.5
2012-12-14 00:43:00,0.0,1.9250,0.0009,-1.00,0.00,73.5,35.7,138.19,24.00,24.60,36.44,0.04,-272.74,-272.75,-36,558,-915,19.4,4.7,-21.8,19.4,4.9,-21.5,5.73,2.40,-26.3,24.5
2012-12-14 00:44:00,0.0,1.9247,0.0010,-1.00,0.00,69.8,45.3,138.19,24.01,24.61,36.44,0.04,-272.75,-272.75,-36,558,-915,19.4,4.7,-21.8,19.4,4.9,-21.5,5.73,2.37,-26.3,24.5
2012-12-14 00:45:00,0.0,1.9254,0.0008,-1.00,0.00,79.3,44.8,138.19,24.02,24.61,36.44,0.04,-272.75,-272.75,-36,558,-915,19.4,4.7,-21.9,19.4,4.9,-21.6,5.73,2.37,-26.2,24.5
2012-12-14 00:46:00,0.0,1.9262,0.0010,-1.00,0.00,70.5,39.4,138.19,24.03,24.60,36.44,0.04,-272.74,-272.75,-36,558,-915,19.4,4.7,-21.9,19.4,4.8,-21.6,5.73,2.36,-26.3,24.5
2012-12-14 00:47:00,0.0,1.9262,0.0010,-1.00,0.00,76.7,44.5,138.19,24.05,24.61,36.43,0.04,-272.75,-272.75,-36,558,-915,19.4,4.7,-22.0,19.4,4.8,-21.7,5.73,2.37,-26.2,24.5
2012-12-14 00:48:00,0.0,1.9257,0.0009,-1.00,0.00,69.4,42.1,138.19,24.06,24.61,36.44,0.04,-272.75,-272.75,-36,558,-915,19.4,4.7,-22.0,19.4,4.8,-21.7,5.73,2.39,-26.2,24.5
2012-12-14 00:49:00,0.0,1.9263,0.0008,-1.00,0.00,66.0,38.7,138.19,24.06,24.60,36.44,0.04,-272.74,-272.75,-36,558,-915,19.4,4.7,-22.0,19.4,4.8,-21.7,5.73,2.40,-26.3,24.5
2012-12-14 00:50:00,0.0,1.9262,0.0010,-1.00,0.00,75.9,41.9,138.19,24.06,24.61,36.44,0.04,-272.74,-272.75,-36,559,-915,19.4,4.6,-22.1,19.4,4.8,-21.8,5.73,2.41,-26.2,24.5
2012-12-14 00:51:00,0.0,1.9265,0.0009,-1.00,0.00,69.0,34.1,138.19,24.06,24.60,36.45,0.04,-272.75,-272.75,-36,558,-915,19.4,4.6,-22.1,19.4,4.7,-21.9,5.73,2.41,-26.2,24.5
2012-12-14 00:52:00,0.0,1.9261,0.0009,-1.00,0.00,67.3,36.8,138.19,24.06,24.60,36.44,0.04,-272.74,-272.74,-36,558,-915,19.4,4.6,-22.2,19.4,4.7,-21.9,5.73,2.40,-26.2,24.6
2012-12-14 00:53:00,0.0,1.9254,0.0009,-1.00,0.00,69.0,40.9,138.19,24.06,24.61,36.44,0.04,-272.74,-272.74,-36,558,-915,19.4,4.6,-22.2,19.4,4.7,-21.8,5.73,2.39,-26.2,24.6
2012-12-14 00:54:00,0.0,1.9261,0.0008,-1.00,0.00,72.2,43.6,138.19,24.07,24.61,36.44,0.04,-272.75,-272.75,-36,559,-915,19.5,4.6,-22.2,19.4,4.7,-21.9,5.73,2.37,-26.2,24.6
2012-12-14 00:55:00,0.0,1.9267,0.0008,-1.00,0.00,76.9,43.9,138.19,24.08,24.61,36.43,0.04,-272.75,-272.75,-37,559,-915,19.5,4.6,-22.2,19.5,4.7,-21.9,5.73,2.36,-26.2,24.6
2012-12-14 00:56:00,0.0,1.9274,0.0010,-1.00,0.00,81.3,46.8,138.19,24.09,24.61,36.44,0.04,-272.75,-272.74,-36,559,-915,19.5,4.5,-22.3,19.5,4.6,-22.0,5.73,2.36,-26.2,24.6
2012-12-14 00:57:00,0.0,1.9271,0.0008,-1.00,0.00,80.1,40.7,138.19,24.10,24.61,36.44,0.04,-272.75,-272.75,-37,559,-915,19.5,4.5,-22.4,19.5,4.6,-22.1,5.73,2.38,-26.2,24.6
2012-12-14 00:58:00,0.0,1.9268,0.0010,-1.00,0.00,87.2,45.1,138.19,24.10,24.60,36.44,0.04,-272.74,-272.75,-37,559,-915,19.5,4.5,-22.4,19.5,4.6,-22.1,5.73,2.38,-26.2,24.6
2012-12-14 00:59:00,0.0,1.9272,0.0010,-1.00,0.00,81.7,41.8,138.19,24.11,24.61,36.43,0.04,-272.74,-272.74,-37,559,-915,19.5,4.5,-22.4,19.5,4.6,-22.1,5.73,2.40,-26.2,24.6
2012-12-14 01:00:00,0.0,1.9266,0.0009,-1.00,0.00,92.6,36.2,138.19,24.13,24.61,36.44,0.04,-272.75,-272.75,-37,559,-915,19.5,4.5,-22.3,19.5,4.6,-22.0,5.73,2.41,-26.2,24.6
2012-12-14 01:01:00,0.0,1.9271,0.0008,-1.00,0.00,88.3,40.3,138.19,24.14,24.61,36.44,0.04,-272.75,-272.75,-37,559,-915,19.5,4.5,-22.3,19.5,4.6,-22.0,5.73,2.41,-26.2,24.6
2012-12-14 01:02:00,0.0,1.9266,0.0008,-1.00,0.00,83.7,36.3,138.19,24.15,24.61,36.44,0.04,-272.75,-272.74,-37,559,-915,19.5,4.5,-22.4,19.5,4.6,-22.0,5.73,2.41,-26.2,24.6
2012-12-14 01:03:00,0.0,1.9268,0.0010,-1.00,0.00,80.3,41.0,138.19,24.15,24.61,36.45,0.04,-272.74,-272.75,-37,559,-915,19.5,4.5,-22.4,19.5,4.6,-22.1,5.73,2.39,-26.2,24.7
2012-12-14 01:04:00,0.0,1.9265,0.0011,-1.00,0.00,78.0,35.8,138.19,24.15,24.61,36.45,0.04,-272.75,-272.75,-37,559,-915,19.5,4.5,-22.4,19.5,4.6,-22.1,5.73,2.37,-26.2,24.7
2012-12-14 01:05:00,0.0,1.9259,0.0012,-1.00,0.00,75.3,39.7,138.19,24.15,24.61,36.45,0.04,-272.75,-272.75,-37,559,-915,19.6,4.5,-22.4,19.6,4.6,-22.1,5.73,2.36,-26.2,24.7
2012-12-14 01:06:00,0.0,1.9255,0.0010,-1.00,0.00,87.5,49.2,138.19,24.15,24.61,36.45,0.04,-272.75,-272.75,-37,559,-915,19.6,4.5,-22.3,19.5,4.6,-22.0,5.73,2.37,-26.2,24.7
2012-12-14 01:07:00,0.0,1.9264,0.0011,-1.00,0.00,90.2,39.7,138.19,24.16,24.61,36.44,0.04,-272.75,-272.75,-37,559,-915,19.6,4.5,-22.3,19.5,4.6,-22.0,5.73,2.37,-26.2,24.7
2012-12-14 01:08:00,0.0,1.9265,0.0008,-1.00,0.00,86.5,47.1,138.19,24.18,24.61,36.44,0.04,-272.75,-272.74,-37,559,-915,19.6,4.5,-22.3,19.6,4.6,-22.1,5.73,2.38,-26.2,24.7
2012-12-14 01:09:00,0.0,1.9263,0.0009,-1.00,0.00,93.4,42.2,138.19,24.19,24.61,36.44,0.04,-272.74,-272.74,-37,559,-915,19.6,4.5,-22.4,19.6,4.6,-22.0,5.73,2.41,-26.2,24.7
2012-12-14 01:10:00,0.0,1.9265,0.0010,-1.00,0.00,77.7,44.9,138.19,24.19,24.61,36.45,0.04,-272.74,-272.75,-37,559,-915,19.6,4.5,-22.3,19.5,4.6,-22.0,5.73,2.41,-26.2,24.7
2012-12-14 01:11:00,0.0,1.9266,0.0009,-1.00,0.00,87.1,44.1,138.19,24.20,24.61,36.44,0.04,-272.75,-272.75,-37,559,-916,19.6,4.5,-22.3,19.6,4.6,-22.0,5.73,2.41,-26.2,24.7
2012-12-14 01:12:00,0.0,1.9263,0.0010,-1.00,0.00,82.4,39.1,138.19,24.22,24.61,36.43,0.04,-272.74,-272.75,-37,559,-916,19.6,4.5,-22.3,19.6,4.6,-22.0,5.73,2.40,-26.2,24.7
2012-12-14 01:13:00,0.0,1.9268,0.0011,-1.00,0.00,88.5,40.6,138.19,24.23,24.61,36.44,0.04,-272.75,-272.75,-37,559,-916,19.6,4.5,-22.3,19.6,4.6,-22.0,5.73,2.38,-26.2,24.7
2012-12-14 01:14:00,0.0,1.9265,0.0009,-1.00,0.00,86.6,42.5,138.19,24.24,24.61,36.44,0.04,-272.74,-272.75,-37,559,-915,19.6,4.5,-22.3,19.6,4.6,-22.1,5.73,2.36,-26.2,24.7
2012-12-14 01:15:00,0.0,1.9264,0.0011,-1.00,0.00,76.4,44.1,138.19,24.25,24.61,36.44,0.04,-272.75,-272.75,-37,559,-916,19.6,4.5,-22.3,19.6,4.6,-22.0,5.73,2.37,-26.2,24.7
2012-12-14 01:16:00,0.0,1.9273,0.0010,-1.00,0.00,72.3,40.0,138.19,24.26,24.61,36.45,0.04,-272.74,-272.74,-37,559,-916,19.6,4.5,-22.4,19.6,4.6,-22.1,5.73,2.36,-26.2,24.7
2012-12-14 01:17:00,0.0,1.9265,0.0010,-1.00,0.00,84.6,45.0,138.19,24.27,24.61,36.44,0.04,-272.75,-272.75,-37,559,-916,19.6,4.5,-22.3,19.6,4.6,-22.0,5.73,2.37,-26.2,24.7
2012-12-14 01:18:00,0.0,1.9268,0.0010,-1.00,0.00,82.1,35.7,138.19,24.28,24.61,36.44,0.04,-272.75,-272.75,-37,559,-916,19.6,4.5,-22.3,19.6,4.6,-22.0,5.73,2.39,-26.2,24.7
2012-12-14 01:19:00,0.0,1.9272,0.0010,-1.00,0.00,73.6,38.9,138.19,24.28,24.61,36.44,0.04,-272.74,-272.74,-37,559,-916,19.6,4.5,-22.3,19.6,4.6,-22.0,5.73,2.41,-26.2,24.7
2012-12-14 01:20:00,0.0,1.9273,0.0010,-1.00,0.00,88.3,46.1,138.19,24.28,24.61,36.45,0.04,-272.75,-272.75,-37,559,-916,19.6,4.4,-22.4,19.6,4.6,-22.1,5.73,2.41,-26.2,24.7
2012-12-14 01:21:00,0.0,1.9268,0.0010,-1.00,0.00,83.8,40.9,138.19,24.28,24.61,36.44,0.04,-272.75,-272.75,-37,559,-916,19.6,4.4,-22.4,19.6,4.6,-22.1,5.73,2.41,-26.2,24.7
2012-12-14 01:22:00,0.0,1.9267,0.0009,-1.00,0.00,94.4,43.2,138.19,24.30,24.61,36.44,0.04,-272.75,-272.75,-37,559,-916,19.6,4.4,-22.4,19.6,4.6,-22.1,5.73,2.40,-26.2,24.8
2012-12-14 01:23:00,0.0,1.9262,0.0009,-1.00,0.00,79.7,43.6,138.19,24.31,24.61,36.45,0.04,-272.74,-272.75,-37,559,-916,19.6,4.5,-22.3,19.6,4.6,-22.0,5.73,2.38,-26.2,24.8
2012-12-14 01:24:00,0.0,1.9272,0.0010,-1.00,0.00,88.5,50.1,138.19,24.32,24.61,36.45,0.04,-272.75,-272.75,-37,559,-916,19.6,4.5,-22.3,19.7,4.6,-22.0,5.73,2.36,-26.2,24.8
2012-12-14 01:25:00,0.0,1.9270,0.0010,-1.00,0.00,85.1,42.3,138.19,24.33,24.61,36.45,0.04,-272.75,-272.74,-37,559,-916,19.7,4.4,-22.4,19.7,4.6,-22.1,5.73,2.36,-26.2,24.8
2012-12-14 01:26:00,0.0,1.9273,0.0010,-1.00,0.00,78.4,44.1,138.19,24.34,24.61,36.44,0.04,-272.74,-272.74,-37,559,-916,19.7,4.4,-22.4,19.7,4.6,-22.1,5.73,2.36,-26.2,24.7
2012-12-14 01:27:00,0.0,1.9274,0.0010,-1.00,0.00,95.2,45.0,138.19,24.35,24.61,36.45,0.04,-272.75,-272.75,-37,559,-915,19.7,4.4,-22.4,19.7,4.5,-22.1,5.73,2.38,-26.2,24.8
2012-12-14 01:28:00,0.0,1.9271,0.0010,-1.00,0.00,88.1,43.4,138.19,24.35,24.61,36.44,0.04,-272.75,-272.75,-37,559,-916,19.7,4.4,-22.4,19.7,4.6,-22.1,5.73,2.39,-26.2,24.8
2012-12-14 01:29:00,0.0,1.9265,0.0009,-1.00,0.00,77.6,34.9,138.19,24.35,24.61,36.44,0.04,-272.74,-272.74,-37,559,-916,19.7,4.4,-22.3,19.7,4.6,-22.1,5.73,2.40,-26.2,24.8
2012-12-14 01:30:00,0.0,1.9272,0.0010,-1.00,0.00,91.9,44.9,138.19,24.35,24.61,36.44,0.04,-272.74,-272.75,-37,559,-916,19.7,4.4,-22.3,19.7,4.6,-22.1,5.73,2.42,-26.2,24.8
2012-12-14 01:31:00,0.0,1.9269,0.0009,-1.00,0.00,86.4,40.6,138.19,24.36,24.61,36.44,0.04,-272.75,-272.75,-37,559,-916,19.7,4.4,-22.3,19.7,4.6,-22.1,5.73,2.41,-26.2,24.8
2012-12-14 01:32:00,0.0,1.9269,0.0010,-1.00,0.00,83.7,41.4,138.19,24.38,24.61,36.44,0.04,-272.74,-272.74,-37,559,-916,19.7,4.4,-22.3,19.7,4.6,-22.1,5.73,2.40,-26.2,24.8
2012-12-14 01:33:00,0.0,1.9273,0.0009,-1.00,0.00,77.1,41.9,138.19,24.39,24.61,36.44,0.04,-272.75,-272.75,-37,559,-916,19.7,4.4,-22.4,19.7,4.5,-22.1,5.73,2.39,-26.2,24.8
2012-12-14 01:34:00,0.0,1.9270,0.0009,-1.00,0.00,91.4,44.4,138.19,24.40,24.61,36.44,0.04,-272.75,-272.75,-37,559,-916,19.7,4.4,-22.4,19.7,4.5,-22.1,5.73,2.38,-26.2,24.8
2012-12-14 01:35:00,0.0,1.9270,0.0009,-1.00,0.00,81.7,45.7,138.19,24.41,24.61,36.44,0.04,-272.75,-272.75,-37,559,-916,19.7,4.4,-22.4,19.7,4.5,-22.1,5.73,2.36,-26.2,24.8
2012-12-14 01:36:00,0.0,1.9269,0.0009,-1.00,0.00,93.8,46.8,138.19,24.42,24.61,36.44,0.04,-272.74,-272.74,-37,559,-916,19.7,4.4,-22.4,19.7,4.5,-22.1,5.73,2.37,-26.2,24.8
2012-12-14 01:37:00,0.0,1.9275,0.0009,-1.00,0.00,80.0,45.4,138.19,24.43,24.61,36.44,0.04,-272.74,-272.74,-37,559,-916,19.7,4.4,-22.4,19.7,4.5,-22.1,5.73,2.37,-26.2,24.8
2012-12-14 01:38:00,0.0,1.9276,0.0009,-1.00,0.00,76.2,38.8,138.19,24.43,24.61,36.44,0.04,-272.75,-272.75,-37,559,-916,19.7,4.4,-22.4,19.7,4.5,-22.1,5.73,2.38,-26.2,24.8
2012-12-14 01:39:00,0.0,1.9277,0.0011,-1.00,0.00,82.6,45.6,138.19,24.43,24.61,36.44,0.04,-272.75,-272.74,-37,560,-916,19.8,4.4,-22.4,19.7,4.5,-22.2,5.73,2.41,-26.2,24.8
2012-12-14 01:40:00,0.0,1.9274,0.0011,-1.00,0.00,93.8,45.8,138.19,24.44,24.61,36.44,0.04,-272.74,-272.74,-37,560,-916,19.8,4.4,-22.4,19.7,4.5,-22.2,5.73,2.41,-26.2,24.8
2012-12-14 01:41:00,0.0,1.9275,0.0010,-1.00,0.00,83.4,42.7,138.19,24.46,24.61,36.45,0.04,-272.75,-272.75,-37,560,-916,19.8,4.4,-22.4,19.7,4.5,-22.2,5.73,2.41,-26.2,24.9
2012-12-14 01:42:00,0.0,1.9281,0.0011,-1.00,0.00,93.9,43.9,138.19,24.46,24.61,36.44,0.04,-272.75,-272.75,-37,559,-916,19.8,4.4,-22.4,19.7,4.5,-22.2,5.73,2.41,-26.2,24.9
2012-12-14 01:43:00,0.0,1.9270,0.0010,-1.00,0.00,88.2,41.0,138.19,24.47,24.61,36.44,0.04,-272.74,-272.74,-37,560,-916,19.8,4.4,-22.4,19.7,4.5,-22.2,5.73,2.39,-26.2,24.8
2012-12-14 01:44:00,0.0,1.9267,0.0009,-1.00,0.00,70.3,42.4,138.19,24.48,24.61,36.44,0.04,-272.75,-272.75,-37,559,-916,19.8,4.4,-22.4,19.7,4.5,-22.1,5.73,2.37,-26.2,24.8
2012-12-14 01:45:00,0.0,1.9265,0.0011,-1.00,0.00,80.2,46.1,138.19,24.49,24.61,36.45,0.04,-272.75,-272.75,-37,559,-916,19.8,4.4,-22.4,19.7,4.5,-22.1,5.73,2.36,-26.2,24.8
2012-12-14 01:46:00,0.0,1.9267,0.0012,-1.00,0.00,90.7,45.7,138.19,24.50,24.61,36.45,0.04,-272.74,-272.75,-37,560,-916,19.8,4.4,-22.3,19.7,4.5,-22.1,5.73,2.36,-26.2,24.9
2012-12-14 01:47:00,0.0,1.9262,0.0011,-1.00,0.00,71.5,44.0,138.19,24.51,24.61,36.44,0.04,-272.74,-272.74,-37,560,-916,19.8,4.4,-22.3,19.7,4.6,-22.0,5.73,2.37,-26.2,24.9
2012-12-14 01:48:00,0.0,1.9266,0.0010,-1.00,0.00,82.9,43.9,138.19,24.52,24.61,36.45,0.04,-272.75,-272.75,-37,560,-916,19.8,4.5,-22.3,19.8,4.6,-22.0,5.73,2.39,-26.2,24.9
2012-12-14 01:49:00,0.0,1.9265,0.0012,-1.00,0.00,76.0,40.4,138.19,24.52,24.61,36.45,0.04,-272.74,-272.75,-37,560,-916,19.8,4.5,-22.2,19.8,4.6,-21.9,5.73,2.40,-26.2,24.9
2012-12-14 01:50:00,0.0,1.9263,0.0009,-1.00,0.00,80.0,42.4,138.19,24.52,24.61,36.45,0.04,-272.74,-272.74,-37,560,-916,19.8,4.5,-22.2,19.8,4.6,-21.9,5.73,2.41,-26.2,24.9
2012-12-14 01:51:00,0.0,1.9264,0.0010,-1.00,0.00,68.9,43.7,138.19,24.53,24.61,36.44,0.04,-272.74,-272.75,-37,560,-916,19.8,4.5,-22.1,19.8,4.6,-21.9,5.73,2.42,-26.2,24.9
2012-12-14 01:52:00,0.0,1.9260,0.0010,-1.00,0.00,74.0,40.1,138.19,24.54,24.61,36.45,0.04,-272.75,-272.75,-37,560,-916,19.8,4.5,-22.1,19.8,4.6,-21.9,5.73,2.41,-26.2,24.9
2012-12-14 01:53:00,0.0,1.9256,0.0011,-1.00,0.00,79.2,51.0,138.19,24.55,24.61,36.45,0.04,-272.74,-272.74,-37,560,-916,19.8,4.5,-22.1,19.8,4.6,-21.8,5.73,2.39,-26.2,24.9
2012-12-14 01:54:00,0.0,1.9259,0.0011,-1.00,0.00,85.8,40.5,138.19,24.55,24.61,36.45,0.04,-272.75,-272.75,-37,560,-916,19.8,4.5,-22.1,19.8,4.6,-21.9,5.73,2.37,-26.2,24.9
2012-12-14 01:55:00,0.0,1.9257,0.0009,-1.00,0.00,86.0,41.0,138.19,24.56,24.61,36.45,0.04,-272.75,-272.75,-37,560,-916,19.8,4.5,-22.1,19.8,4.6,-21.9,5.73,2.37,-26.2,24.9
2012-12-14 01:56:00,0.0,1.9253,0.0010,-1.00,0.00,89.1,45.4,138.18,24.57,24.61,36.45,0.04,-272.74,-272.75,-37,560,-916,19.8,4.5,-22.1,19.8,4.6,-21.8,5.73,2.36,-26.2,24.9
2012-12-14 01:57:00,0.0,1.9261,0.0010,-1.00,0.00,82.3,37.8,138.18,24.58,24.61,36.45,0.04,-272.74,-272.75,-37,560,-916,19.8,4.5,-22.1,19.8,4.6,-21.9,5.73,2.37,-26.2,24.9
2012-12-14 01:58:00,0.0,1.9264,0.0012,-1.00,0.00,74.1,45.6,138.19,24.59,24.61,36.44,0.04,-272.74,-272.75,-37,560,-916,19.8,4.5,-22.2,19.8,4.6,-21.9,5.73,2.39,-26.2,24.9
2012-12-14 01:59:00,0.0,1.9265,0.0009,-1.00,0.00,70.9,39.1,138.18,24.59,24.61,36.45,0.04,-272.75,-272.75,-37,560,-916,19.9,4.5,-22.2,19.8,4.6,-21.9,5.73,2.40,-26.2,24.9
2012-12-14 02:00:00,1.0,1.8977,0.0199,-1.00,0.00,70.7,40.7,138.18,24.59,24.61,36.45,0.04,-272.74,-272.75,-37,628,-916,19.9,4.5,-22.2,19.8,4.6,-22.0,5.73,2.36,-26.2,24.9
2012-12-14 02:01:00,1.0,1.8750,0.0011,-1.00,0.00,46.4,36.9,138.18,24.60,24.61,36.45,0.04,-272.74,-272.75,-37,626,-916,19.9,4.5,-22.2,19.8,4.6,-21.9,5.73,2.42,-26.3,24.9
2012-12-14 02:02:00,1.0,1.8752,0.0012,-1.00,0.00,60.7,49.9,138.19,24.61,24.61,36.46,0.04,-272.75,-272.75,-37,626,-916,19.9,4.5,-22.1,19.9,4.6,-21.8,5.73,2.40,-26.2,24.9
2012-12-14 02:03:00,1.0,1.8752,0.0010,-1.00,0.00,61.9,41.6,138.18,24.62,24.61,36.46,0.04,-272.75,-272.74,-37,626,-916,19.9,4.5,-22.1,19.9,4.6,-21.8,5.73,2.38,-26.3,25.0
2012-12-14 02:04:00,1.0,1.8749,0.0000,-1.00,0.00,169.8,0.0,138.19,24.62,24.62,36.46,0.04,-272.76,-272.76,-38,626,-916,19.8,4.5,-22.2,19.8,4.6,-21.9,5.73,1.90,-26.3,24.9
2012-12-14 02:05:00,0.5,1.8823,0.0141,-1.00,0.00,61.1,39.0,138.18,24.64,24.61,36.45,0.04,-272.75,-272.75,-36,598,-916,19.9,4.5,-22.1,19.9,4.6,-21.9,5.73,2.64,-26.3,25.1
2012-12-14 02:06:00,0.0,1.9248,0.0013,-1.00,0.00,80.8,42.3,138.18,24.65,24.61,36.45,0.04,-272.75,-272.75,-37,556,-916,19.9,4.5,-22.1,19.9,4.6,-21.8,5.73,2.37,-26.2,25.0
2012-12-14 02:07:00,0.0,1.9256,0.0010,-1.00,0.00,74.8,43.6,138.18,24.66,24.61,36.45,0.04,-272.74,-272.74,-37,556,-916,19.9,4.5,-22.0,19.9,4.6,-21.8,5.73,2.38,-26.2,25.0
2012-12-14 02:08:00,0.0,1.9260,0.0010,-1.00,0.00,78.9,36.8,138.18,24.67,24.61,36.45,0.04,-272.74,-272.75,-37,556,-916,19.9,4.5,-22.0,19.9,4.6,-21.8,5.73,2.40,-26.2,25.0
2012-12-14 02:09:00,0.0,1.9255,0.0010,-1.00,0.00,75.5,40.2,138.18,24.68,24.61,36.45,0.04,-272.75,-272.75,-37,556,-916,19.9,4.5,-22.0,19.9,4.6,-21.8,5.73,2.41,-26.2,25.0
2012-12-14 02:10:00,0.0,1.9253,0.0009,-1.00,0.00,78.7,45.2,138.18,24.69,24.61,36.45,0.04,-272.74,-272.75,-37,557,-916,19.9,4.5,-22.0,19.9,4.6,-21.8,5.73,2.41,-26.2,25.1
2012-12-14 02:11:00,0.0,1.9261,0.0011,-1.00,0.00,82.6,40.7,138.18,24.70,24.61,36.45,0.04,-272.75,-272.75,-37,557,-916,19.9,4.5,-22.1,19.9,4.6,-21.8,5.73,2.41,-26.2,25.1
2012-12-14 02:12:00,0.0,1.9261,0.0010,-1.00,0.00,76.8,46.8,138.18,24.70,24.61,36.45,0.04,-272.75,-272.75,-37,557,-916,20.0,4.5,-22.1,19.9,4.6,-21.8,5.73,2.39,-26.2,25.1
2012-12-14 02:13:00,0.0,1.9256,0.0012,-1.00,0.00,64.4,37.9,138.18,24.70,24.61,36.44,0.04,-272.75,-272.75,-37,557,-916,20.0,4.5,-22.0,19.9,4.6,-21.8,5.73,2.38,-26.2,25.0
2012-12-14 02:14:00,0.0,1.9254,0.0012,-1.00,0.00,70.9,38.3,138.18,24.71,24.61,36.45,0.04,-272.75,-272.75,-37,557,-916,20.0,4.5,-22.0,19.9,4.6,-21.8,5.73,2.37,-26.2,25.0
2012-12-14 02:15:00,0.0,1.9251,0.0010,-1.00,0.00,85.7,41.3,138.18,24.72,24.61,36.45,0.04,-272.75,-272.75,-37,557,-916,20.0,4.5,-22.0,19.9,4.6,-21.8,5.73,2.35,-26.2,25.1
2012-12-14 02:16:00,0.0,1.9251,0.0008,-1.00,0.00,71.5,44.0,138.18,24.73,24.61,36.45,0.04,-272.74,-272.75,-37,557,-916,20.0,4.5,-21.9,19.9,4.6,-21.7,5.73,2.36,-26.2,25.1
2012-12-14 02:17:00,0.0,1.9248,0.0009,-1.00,0.00,81.1,48.5,138.18,24.73,24.61,36.45,0.04,-272.74,-272.74,-37,557,-916,20.0,4.5,-21.9,19.9,4.7,-21.7,5.73,2.38,-26.2,25.1
2012-12-14 02:18:00,0.0,1.9247,0.0012,-1.00,0.00,82.4,36.1,138.18,24.73,24.61,36.46,0.04,-272.75,-272.75,-37,557,-916,20.0,4.6,-21.9,20.0,4.7,-21.6,5.73,2.40,-26.2,25.1